Find Lemur-2 Leia-Philip

NORAD ID: 63246 Int'l Des: 2025-052 Owner: SPIRE Country: US Constellation: spire operational
LEOCIRCULARRETROGRADESSO

实时位置

正在加载3D地球...

关于 Lemur-2 Leia-Philip

正在加载描述...

即将过境

Passes for default location (London). Set your location on the main map for personalized predictions.

高度历史

Loading altitude history...

两行轨道根数

1 63246U 25052AN 26106.18330941 .00003588 00000-0 31589-3 0 9992
2 63246 97.6910 359.1644 0005830 81.3242 278.8640 14.97098671 59396
Epoch: Apr 16, 2026 • Age: 11 hours

当前状态

高度 582.0 km
速度 7.58 km/s
星下点 58.52°N, 96.21°W
发射日期 Mar 15, 2025
运行时间 1 years
类型 other

技术详情

分类 Payload
质量 10.00 kg
干质量 10.00 kg
总质量 10.00 kg
长度 0.30 m
直径 0.20 m
跨度 0.30 m
形状 Box
制造商 SPIREG
平台类型 Cubesat 6U
阶段状态 In Orbit
所有者/国家 SPIRE/US

Most Searched